Location: Charbonni�res
(45.9952°N, 2.9982°E)
Time: 17:34:16
(UTC+00:00)

Cosmos 2263 Rocket - Pass Details

Date: 29 November 2020
Orbit: 823 x 849 km, 71.0° (Epoch: 23 January)

Event Time Altitude Azimuth Distance (km) Brightness Sun altitude
Exits shadow 03:01:17 19° 62° (ENE) 1,914 4.5 -42.0°
Drops below altitude 10° 03:03:16 10° 47° (NE) 2,478 5.1 -41.6°
Sets 03:06:02 0° 36° (NE) 3,420 5.9 -41.2°
